User: anonymous   Login
Location: Unspecified
(41.1637°N, 0.0000°E)
Time: 01:22:20
(UTC+00:00)
Language:

M-CUBED/EXP-1 PRIME - Orbit

View from above orbital plane
View from above orbital plane
View from above satellite
View from above satellite

Ground track
Ground track

The orbit data is extracted from the following two-line orbital elements,

1 37855U 11061F   19235.39486273  .00000136  00000-0  15289-4 0  9998
2 37855 101.7100 164.7160 0173019 242.0110 116.3502 15.05541631426669
Epoch (UTC): 23 August 2019 09:28:36
Eccentricity: 0.0173019
inclination: 101.7100°
perigee height: 430 km
apogee height: 670 km
right ascension of ascending node: 164.7160°
argument of perigee: 242.0110°
revolutions per day: 15.05541631
mean anomaly at epoch: 116.3502°
orbit number at epoch: 42666

The dashed part of the orbit path shows where the satellite is in the earth's shadow,  

DLR